Overview Statistics Trail Chart Weather Telemetry Raw packets
 

This is the latest recevied weather packets stored in our database for station/object W0WFX-2. If no packets are shown the sender has not sent any weather packets the latest 10 day(s).

<< 62 63 64 65 66 67 68 >>
Time Temp. Humidity Pressure Rain* Wind** Luminosity Snow
1788214397 38.33° C 30% 1013.1 hPa 0 mm - 332 W/m² -
1788214092 38.89° C 30% 1013.2 hPa 0 mm - 347 W/m² -
1788213787 38.89° C 30% 1013.2 hPa 0 mm - 364 W/m² -
1788213482 38.89° C 31% 1013.2 hPa 0 mm - 378 W/m² -
1788213178 38.33° C 31% 1013.3 hPa 0 mm - 392 W/m² -
1788212875 38.33° C 31% 1013.3 hPa 0 mm - 410 W/m² -
1788212572 38.33° C 31% 1013.2 hPa 0 mm - 424 W/m² -
1788212267 38.33° C 32% 1013.1 hPa 0 mm - 440 W/m² -
1788211964 38.89° C 31% 1013.1 hPa 0 mm - 454 W/m² -
1788211664 38.89° C 30% 1013.1 hPa 0 mm - 236 W/m² -
1788211361 38.89° C 30% 1013.2 hPa 0 mm - 80 W/m² -
1788211059 38.89° C 29% 1013.4 hPa 0 mm - 80 W/m² -
1788210755 38.89° C 29% 1013.2 hPa 0 mm - 82 W/m² -
1788210455 38.33° C 29% 1013.4 hPa 0 mm - 84 W/m² -
1788210151 38.89° C 30% 1013.3 hPa 0 mm - 86 W/m² -
1788209850 38.33° C 31% 1013.6 hPa 0 mm - 89 W/m² -
1788209547 38.33° C 30% 1013.4 hPa 0 mm - 92 W/m² -
1788209247 38.33° C 30% 1013.3 hPa 0 mm - 95 W/m² -
1788208946 38.33° C 31% 1013.4 hPa 0 mm - 99 W/m² -
1788208645 38.33° C 31% 1013.5 hPa 0 mm - 104 W/m² -
1788208345 38.33° C 32% 1013.6 hPa 0 mm - 108 W/m² -
1788208044 38.33° C 32% 1013.5 hPa 0 mm - 110 W/m² -
1788207739 38.33° C 32% 1013.6 hPa 0 mm - 112 W/m² -
1788207433 38.33° C 32% 1013.6 hPa 0 mm - 117 W/m² -
1788207133 38.89° C 31% 1013.6 hPa 0 mm - 118 W/m² -

* Rain latest hour (hover to see other rain measurements)
** Current wind speed in m/s (hover to see current wind gust speed)